Year,Month,Day,Hour,Minute,Value (Times are PST for temperature in C)
2011,10,31,12,39,9.00
2011,10,31,12,40,9.00
2011,10,31,12,41,9.00
2011,10,31,12,42,9.10
2011,10,31,12,43,9.00
2011,10,31,12,44,9.00
2011,10,31,12,45,9.00
2011,10,31,12,46,8.90
2011,10,31,12,47,8.90
2011,10,31,12,48,8.90
2011,10,31,12,49,8.80
2011,10,31,12,50,8.80
2011,10,31,12,51,8.80
2011,10,31,12,52,8.80
2011,10,31,12,53,8.90
2011,10,31,12,54,8.90
2011,10,31,12,55,8.90
2011,10,31,12,56,9.00
2011,10,31,12,57,9.00
2011,10,31,12,58,9.00
2011,10,31,12,59,9.00
2011,10,31,13,02,9.10
2011,10,31,13,03,9.10
2011,10,31,13,04,9.10
2011,10,31,13,05,9.10
2011,10,31,13,06,9.10
2011,10,31,13,07,9.10
2011,10,31,13,08,9.10
2011,10,31,13,09,9.10
2011,10,31,13,10,9.10
2011,10,31,13,11,9.10
2011,10,31,13,12,9.10
2011,10,31,13,13,9.20
2011,10,31,13,14,9.20
2011,10,31,13,15,9.30
2011,10,31,13,16,9.30
2011,10,31,13,17,9.30
2011,10,31,13,18,9.30
2011,10,31,13,19,9.30
2011,10,31,13,20,9.30
2011,10,31,13,21,9.30
2011,10,31,13,22,9.30
2011,10,31,13,23,9.30
2011,10,31,13,24,9.30
2011,10,31,13,25,9.30
2011,10,31,13,26,9.30
2011,10,31,13,27,9.30
2011,10,31,13,28,9.20
2011,10,31,13,29,9.20
2011,10,31,13,30,9.20
2011,10,31,13,31,9.20
2011,10,31,13,32,9.20
2011,10,31,13,33,9.20
2011,10,31,13,34,9.20
2011,10,31,13,35,9.20
2011,10,31,13,36,9.20
2011,10,31,13,37,9.20
2011,10,31,13,38,9.20
2011,10,31,13,39,9.20
2011,10,31,13,40,9.20
2011,10,31,13,41,9.20
2011,10,31,13,42,9.20
2011,10,31,13,43,9.20
2011,10,31,13,44,9.20
2011,10,31,13,45,9.30
2011,10,31,13,46,9.30
2011,10,31,13,47,9.30
2011,10,31,13,48,9.30
2011,10,31,13,49,9.20
2011,10,31,13,50,9.20
2011,10,31,13,51,9.20
2011,10,31,13,52,9.20
2011,10,31,13,53,9.20
2011,10,31,13,54,9.20
2011,10,31,13,55,9.20
2011,10,31,13,56,9.20
2011,10,31,13,57,9.20
2011,10,31,13,58,9.20
2011,10,31,13,59,9.30
2011,10,31,14,00,9.30
2011,10,31,14,01,9.30
2011,10,31,14,02,9.30
2011,10,31,14,03,9.30
2011,10,31,14,04,9.30
2011,10,31,14,05,9.30
2011,10,31,14,06,9.30
2011,10,31,14,07,9.30
2011,10,31,14,08,9.30
2011,10,31,14,09,9.30
2011,10,31,14,10,9.30
2011,10,31,14,11,9.40
2011,10,31,14,12,9.40
2011,10,31,14,13,9.40
2011,10,31,14,14,9.40
2011,10,31,14,15,9.40
2011,10,31,14,16,9.40
2011,10,31,14,17,9.40
2011,10,31,14,18,9.50
2011,10,31,14,19,9.50
2011,10,31,14,20,9.60
2011,10,31,14,21,9.60
2011,10,31,14,22,9.60
2011,10,31,14,23,9.70
2011,10,31,14,24,9.70
2011,10,31,14,25,9.70
2011,10,31,14,26,9.80
2011,10,31,14,27,9.80
2011,10,31,14,28,9.80
2011,10,31,14,29,9.80
2011,10,31,14,30,9.80
2011,10,31,14,31,9.80
2011,10,31,14,32,9.90
2011,10,31,14,33,9.90
2011,10,31,14,34,9.90
2011,10,31,14,35,9.90
2011,10,31,14,36,9.90
2011,10,31,14,37,10.00
2011,10,31,14,38,9.90
2011,10,31,14,39,9.90
2011,10,31,14,40,9.90
2011,10,31,14,41,9.90
2011,10,31,14,42,9.90
2011,10,31,14,43,9.90
2011,10,31,14,44,9.90
2011,10,31,14,45,9.80
2011,10,31,14,46,9.80
2011,10,31,14,47,9.80
2011,10,31,14,48,9.80
2011,10,31,14,49,9.70
2011,10,31,14,50,9.70
2011,10,31,14,51,9.70
2011,10,31,14,52,9.60
2011,10,31,14,53,9.60
2011,10,31,14,54,9.60
2011,10,31,14,55,9.70
2011,10,31,14,56,9.70
2011,10,31,14,57,9.70
2011,10,31,14,58,9.70
2011,10,31,14,59,9.60
2011,10,31,15,00,9.60
2011,10,31,15,01,9.60
2011,10,31,15,02,9.60
2011,10,31,15,03,9.70
2011,10,31,15,04,9.70
2011,10,31,15,05,9.70
2011,10,31,15,06,9.70
2011,10,31,15,07,9.70
2011,10,31,15,08,9.70
2011,10,31,15,09,9.60
2011,10,31,15,10,9.60
2011,10,31,15,11,9.60
2011,10,31,15,12,9.60
2011,10,31,15,13,9.60
2011,10,31,15,14,9.60
2011,10,31,15,15,9.60
2011,10,31,15,16,9.60
2011,10,31,15,17,9.60
2011,10,31,15,18,9.60
2011,10,31,15,19,9.60
2011,10,31,15,20,9.60
2011,10,31,15,21,9.60
2011,10,31,15,22,9.60
2011,10,31,15,23,9.60
2011,10,31,15,24,9.70
2011,10,31,15,25,9.70
2011,10,31,15,26,9.70
2011,10,31,15,27,9.70
2011,10,31,15,28,9.70
2011,10,31,15,29,9.60
2011,10,31,15,30,9.60
2011,10,31,15,31,9.60
2011,10,31,15,32,9.60
2011,10,31,15,33,9.70
2011,10,31,15,34,9.70
2011,10,31,15,35,9.70
2011,10,31,15,36,9.70
2011,10,31,15,37,9.70
2011,10,31,15,38,9.60
2011,10,31,15,39,9.60
2011,10,31,15,40,9.60
2011,10,31,15,41,9.60
2011,10,31,15,42,9.60
2011,10,31,15,43,9.60
2011,10,31,15,44,9.60
2011,10,31,15,45,9.70
2011,10,31,15,46,9.70
2011,10,31,15,47,9.60
2011,10,31,15,48,9.60
2011,10,31,15,49,9.60
2011,10,31,15,50,9.60
2011,10,31,15,51,9.50
2011,10,31,15,52,9.50
2011,10,31,15,53,9.40
2011,10,31,15,54,9.40
2011,10,31,15,55,9.40
2011,10,31,15,56,9.50
2011,10,31,15,57,9.50
2011,10,31,15,58,9.50
2011,10,31,15,59,9.50
2011,10,31,16,00,9.50
2011,10,31,16,01,9.50
2011,10,31,16,02,9.50
2011,10,31,16,03,9.50
2011,10,31,16,04,9.50
2011,10,31,16,05,9.50
2011,10,31,16,06,9.50
2011,10,31,16,07,9.50
2011,10,31,16,08,9.50
2011,10,31,16,09,9.50
2011,10,31,16,10,9.50
2011,10,31,16,11,9.40
2011,10,31,16,12,9.40
2011,10,31,16,13,9.40
2011,10,31,16,14,9.40
2011,10,31,16,15,9.40
2011,10,31,16,16,9.40
2011,10,31,16,17,9.40
2011,10,31,16,18,9.40
2011,10,31,16,19,9.40
2011,10,31,16,20,9.40
2011,10,31,16,21,9.40
2011,10,31,16,22,9.40
2011,10,31,16,23,9.40
2011,10,31,16,24,9.40
2011,10,31,16,25,9.40
2011,10,31,16,26,9.40
2011,10,31,16,27,9.40
2011,10,31,16,28,9.30
2011,10,31,16,29,9.30
2011,10,31,16,30,9.30
2011,10,31,16,31,9.30
2011,10,31,16,32,9.30
2011,10,31,16,33,9.30
2011,10,31,16,34,9.20
2011,10,31,16,35,9.20
2011,10,31,16,36,9.10
2011,10,31,16,37,9.10
2011,10,31,16,41,8.90
2011,10,31,16,42,8.90
2011,10,31,16,43,8.80
2011,10,31,16,44,8.80
2011,10,31,16,45,8.80
2011,10,31,16,46,8.80
2011,10,31,16,47,8.80
2011,10,31,16,48,8.80
2011,10,31,16,49,8.80
2011,10,31,16,50,8.70
2011,10,31,16,51,8.70
2011,10,31,16,52,8.70
2011,10,31,16,53,8.70
2011,10,31,16,54,8.70
2011,10,31,16,55,8.60
2011,10,31,16,56,8.60
2011,10,31,16,57,8.70
2011,10,31,16,58,8.70
2011,10,31,16,59,8.70
2011,10,31,17,00,8.70
2011,10,31,17,01,8.70
2011,10,31,17,02,8.70
2011,10,31,17,03,8.80
2011,10,31,17,04,8.80
2011,10,31,17,05,8.80
2011,10,31,17,06,8.80
2011,10,31,17,07,8.80
2011,10,31,17,08,8.80
2011,10,31,17,09,8.80
2011,10,31,17,10,8.80
2011,10,31,17,11,8.80
2011,10,31,17,12,8.80
2011,10,31,17,13,8.80
2011,10,31,17,14,8.80
2011,10,31,17,15,8.80
2011,10,31,17,16,8.80
2011,10,31,17,17,8.80
2011,10,31,17,18,8.80
2011,10,31,17,19,8.80
2011,10,31,17,20,8.80
2011,10,31,17,21,8.80
2011,10,31,17,22,8.70
2011,10,31,17,23,8.70
2011,10,31,17,24,8.70
2011,10,31,17,25,8.70
2011,10,31,17,26,8.70
2011,10,31,17,27,8.70
2011,10,31,17,28,8.70
2011,10,31,17,29,8.60
2011,10,31,17,30,8.60
2011,10,31,17,31,8.60
2011,10,31,17,32,8.60
2011,10,31,17,33,8.50
2011,10,31,17,34,8.50
2011,10,31,17,35,8.40
2011,10,31,17,36,8.40
2011,10,31,17,37,8.40
2011,10,31,17,38,8.30
2011,10,31,17,39,8.30
2011,10,31,17,40,8.30
2011,10,31,17,41,8.30
2011,10,31,17,42,8.30
2011,10,31,17,43,8.20
2011,10,31,17,44,8.20
2011,10,31,17,46,8.20
2011,10,31,17,47,8.10
2011,10,31,17,48,8.10
2011,10,31,17,49,8.10
2011,10,31,17,50,8.10
2011,10,31,17,51,8.10
2011,10,31,17,52,8.10
2011,10,31,17,53,8.10
2011,10,31,17,54,8.00
2011,10,31,17,55,8.00
2011,10,31,17,56,8.00
2011,10,31,17,57,8.00
2011,10,31,17,58,8.00
2011,10,31,17,59,7.90
2011,10,31,18,00,7.90
2011,10,31,18,01,7.90
2011,10,31,18,02,7.90
2011,10,31,18,03,7.90
2011,10,31,18,04,7.90
2011,10,31,18,05,7.90
2011,10,31,18,06,7.80
2011,10,31,18,07,7.80
2011,10,31,18,08,7.80
2011,10,31,18,09,7.80
2011,10,31,18,10,7.80
2011,10,31,18,11,7.80
2011,10,31,18,12,7.80
2011,10,31,18,13,7.80
2011,10,31,18,14,7.80
2011,10,31,18,15,7.80
2011,10,31,18,16,7.80
2011,10,31,18,17,7.80
2011,10,31,18,18,7.80
2011,10,31,18,19,7.70
2011,10,31,18,20,7.70
2011,10,31,18,21,7.70
2011,10,31,18,22,7.70
2011,10,31,18,23,7.70
2011,10,31,18,24,7.70
2011,10,31,18,25,7.80
2011,10,31,18,26,7.80
2011,10,31,18,27,7.80
2011,10,31,18,28,7.80
2011,10,31,18,29,7.80
2011,10,31,18,30,7.80
2011,10,31,18,31,7.80
2011,10,31,18,32,7.90
2011,10,31,18,33,7.90
2011,10,31,18,34,7.90
2011,10,31,18,35,7.90
2011,10,31,18,36,7.90
2011,10,31,18,37,7.90
2011,10,31,18,38,8.00
2011,10,31,18,39,8.00
2011,10,31,18,40,7.90
2011,10,31,18,41,7.90
2011,10,31,18,42,7.90
2011,10,31,18,43,7.90
2011,10,31,18,44,7.90
2011,10,31,18,45,7.90
2011,10,31,18,46,7.90
2011,10,31,18,47,7.90
2011,10,31,18,48,7.90
2011,10,31,18,49,7.90
2011,10,31,18,50,7.90
2011,10,31,18,51,7.90
2011,10,31,18,52,7.90
2011,10,31,18,53,7.80
2011,10,31,18,54,7.80
2011,10,31,18,55,7.80
2011,10,31,18,58,7.80
2011,10,31,18,59,7.80
2011,10,31,19,00,7.80
2011,10,31,19,01,7.90
2011,10,31,19,02,7.80
2011,10,31,19,03,7.80
2011,10,31,19,04,7.80
2011,10,31,19,05,7.80
2011,10,31,19,06,7.80
2011,10,31,19,07,7.80
2011,10,31,19,08,7.80
2011,10,31,19,09,7.80
2011,10,31,19,10,7.80
2011,10,31,19,11,7.80
2011,10,31,19,12,7.80
2011,10,31,19,13,7.80
2011,10,31,19,14,7.80
2011,10,31,19,15,7.80
2011,10,31,19,16,7.80
2011,10,31,19,17,7.80
2011,10,31,19,18,7.80
2011,10,31,19,19,7.80
2011,10,31,19,20,7.80
2011,10,31,19,21,7.80
2011,10,31,19,22,7.80
2011,10,31,19,23,7.80
2011,10,31,19,24,7.80
2011,10,31,19,25,7.70
2011,10,31,19,26,7.70
2011,10,31,19,27,7.70
2011,10,31,19,28,7.70
2011,10,31,19,29,7.70
2011,10,31,19,30,7.70
2011,10,31,19,31,7.70
2011,10,31,19,32,7.70
2011,10,31,19,33,7.70
2011,10,31,19,34,7.70
2011,10,31,19,35,7.70
2011,10,31,19,36,7.70
2011,10,31,19,37,7.70
2011,10,31,19,38,7.70
2011,10,31,19,39,7.70
2011,10,31,19,40,7.60
2011,10,31,19,41,7.60
2011,10,31,19,42,7.60
2011,10,31,19,43,7.60
2011,10,31,19,44,7.50
2011,10,31,19,45,7.50
2011,10,31,19,46,7.50
2011,10,31,19,47,7.50
2011,10,31,19,48,7.40
2011,10,31,19,49,7.50
2011,10,31,19,50,7.50
2011,10,31,19,51,7.50
2011,10,31,19,52,7.50
2011,10,31,19,53,7.40
2011,10,31,19,54,7.40
2011,10,31,19,55,7.40
2011,10,31,19,56,7.40
2011,10,31,19,57,7.30
2011,10,31,19,58,7.30
2011,10,31,19,59,7.30
2011,10,31,20,00,7.30
2011,10,31,20,01,7.30
2011,10,31,20,02,7.30
2011,10,31,20,03,7.30
2011,10,31,20,04,7.30
2011,10,31,20,05,7.30
2011,10,31,20,06,7.30
2011,10,31,20,07,7.30
2011,10,31,20,08,7.30
2011,10,31,20,09,7.30
2011,10,31,20,10,7.30
2011,10,31,20,11,7.20
2011,10,31,20,12,7.20
2011,10,31,20,13,7.20
2011,10,31,20,14,7.20
2011,10,31,20,15,7.20
2011,10,31,20,16,7.20
2011,10,31,20,17,7.20
2011,10,31,20,18,7.20
2011,10,31,20,19,7.20
2011,10,31,20,20,7.10
2011,10,31,20,21,7.10
2011,10,31,20,22,7.10
2011,10,31,20,23,7.00
2011,10,31,20,24,7.00
2011,10,31,20,25,7.00
2011,10,31,20,26,7.00
2011,10,31,20,27,6.90
2011,10,31,20,28,6.90
2011,10,31,20,29,6.90
2011,10,31,20,30,6.90
2011,10,31,20,31,6.90
2011,10,31,20,32,6.80
2011,10,31,20,33,6.80
2011,10,31,20,34,6.80
2011,10,31,20,35,6.80
2011,10,31,20,36,6.80
2011,10,31,20,37,6.80
2011,10,31,20,38,6.70
2011,10,31,20,39,6.80
2011,10,31,20,40,6.80
2011,10,31,20,41,6.80
2011,10,31,20,42,6.80
2011,10,31,20,43,6.80
2011,10,31,20,44,6.80
2011,10,31,20,45,6.80
2011,10,31,20,46,6.80
2011,10,31,20,47,6.80
2011,10,31,20,48,6.80
2011,10,31,20,49,6.80
2011,10,31,20,50,6.80
2011,10,31,20,51,6.80
2011,10,31,20,52,6.90
2011,10,31,20,53,6.90
2011,10,31,20,54,6.90
2011,10,31,20,55,7.00
2011,10,31,20,56,7.00
2011,10,31,20,57,7.00
2011,10,31,20,58,7.00
2011,10,31,21,00,7.00
2011,10,31,21,01,7.00
2011,10,31,21,02,7.00
2011,10,31,21,03,7.00
2011,10,31,21,04,7.00
2011,10,31,21,05,6.90
2011,10,31,21,06,6.90
2011,10,31,21,07,6.90
2011,10,31,21,08,6.90
2011,10,31,21,09,6.90
2011,10,31,21,10,6.80
2011,10,31,21,11,6.80
2011,10,31,21,12,6.80
2011,10,31,21,13,6.80
2011,10,31,21,14,6.80
2011,10,31,21,15,6.80
2011,10,31,21,16,6.80
2011,10,31,21,17,6.80
2011,10,31,21,18,6.80
2011,10,31,21,19,6.80
2011,10,31,21,20,6.80
2011,10,31,21,21,6.80
2011,10,31,21,22,6.80
2011,10,31,21,23,6.80
2011,10,31,21,24,6.80
2011,10,31,21,25,6.80
2011,10,31,21,26,6.80
2011,10,31,21,27,6.80
2011,10,31,21,28,6.80
2011,10,31,21,29,6.80
2011,10,31,21,30,6.80
2011,10,31,21,31,6.80
2011,10,31,21,32,6.70
2011,10,31,21,33,6.70
2011,10,31,21,34,6.70
2011,10,31,21,35,6.70
2011,10,31,21,36,6.70
2011,10,31,21,37,6.80
2011,10,31,21,38,6.80
2011,10,31,21,39,6.80
2011,10,31,21,40,6.80
2011,10,31,21,41,6.80
2011,10,31,21,42,6.80
2011,10,31,21,43,6.80
2011,10,31,21,44,6.80
2011,10,31,21,45,6.80
2011,10,31,21,46,6.80
2011,10,31,21,47,6.80
2011,10,31,21,48,6.80
2011,10,31,21,49,6.90
2011,10,31,21,50,6.90
2011,10,31,21,51,6.90
2011,10,31,21,52,6.90
2011,10,31,21,53,6.90
2011,10,31,21,54,6.90
2011,10,31,21,55,6.90
2011,10,31,21,56,6.90
2011,10,31,21,57,6.90
2011,10,31,21,58,6.90
2011,10,31,21,59,6.90
2011,10,31,22,00,6.90
2011,10,31,22,01,6.90
2011,10,31,22,02,6.90
2011,10,31,22,03,6.90
2011,10,31,22,04,6.90
2011,10,31,22,05,6.90
2011,10,31,22,06,6.90
2011,10,31,22,07,6.80
2011,10,31,22,08,6.80
2011,10,31,22,09,6.80
2011,10,31,22,10,6.80
2011,10,31,22,11,6.80
2011,10,31,22,12,6.80
2011,10,31,22,13,6.80
2011,10,31,22,14,6.80
2011,10,31,22,15,6.80
2011,10,31,22,16,6.80
2011,10,31,22,17,6.80
2011,10,31,22,18,6.80
2011,10,31,22,19,6.80
2011,10,31,22,20,6.80
2011,10,31,22,21,6.80
2011,10,31,22,22,6.80
2011,10,31,22,23,6.80
2011,10,31,22,24,6.80
2011,10,31,22,25,6.80
2011,10,31,22,26,6.80
2011,10,31,22,27,6.80
2011,10,31,22,28,6.80
2011,10,31,22,29,6.80
2011,10,31,22,30,6.80
2011,10,31,22,31,6.80
2011,10,31,22,32,6.80
2011,10,31,22,33,6.80
2011,10,31,22,34,6.80
2011,10,31,22,35,6.80
2011,10,31,22,36,6.80
2011,10,31,22,37,6.80
2011,10,31,22,38,6.80
2011,10,31,22,39,6.80
2011,10,31,22,40,6.80
2011,10,31,22,41,6.80
2011,10,31,22,42,6.80
2011,10,31,22,43,6.80
2011,10,31,22,44,6.80
2011,10,31,22,45,6.80
2011,10,31,22,46,6.80
2011,10,31,22,47,6.80
2011,10,31,22,48,6.80
2011,10,31,22,49,6.70
2011,10,31,22,50,6.70
2011,10,31,22,51,6.70
2011,10,31,22,52,6.70
2011,10,31,22,53,6.70
2011,10,31,22,54,6.60
2011,10,31,22,55,6.60
2011,10,31,22,56,6.60
2011,10,31,22,57,6.60
2011,10,31,22,58,6.60
2011,10,31,22,59,6.60
2011,10,31,23,00,6.60
2011,10,31,23,01,6.60
2011,10,31,23,02,6.60
2011,10,31,23,03,6.60
2011,10,31,23,04,6.60
2011,10,31,23,05,6.60
2011,10,31,23,06,6.60
2011,10,31,23,07,6.60
2011,10,31,23,08,6.60
2011,10,31,23,09,6.60
2011,10,31,23,10,6.60
2011,10,31,23,11,6.50
2011,10,31,23,12,6.50
2011,10,31,23,13,6.50
2011,10,31,23,14,6.50
2011,10,31,23,15,6.50
2011,10,31,23,16,6.50
2011,10,31,23,17,6.50
2011,10,31,23,18,6.50
2011,10,31,23,19,6.50
2011,10,31,23,20,6.50
2011,10,31,23,21,6.50
2011,10,31,23,22,6.50
2011,10,31,23,23,6.50
2011,10,31,23,24,6.40
2011,10,31,23,25,6.40
2011,10,31,23,26,6.40
2011,10,31,23,27,6.40
2011,10,31,23,28,6.40
2011,10,31,23,29,6.40
2011,10,31,23,30,6.40
2011,10,31,23,31,6.40
2011,10,31,23,32,6.40
2011,10,31,23,33,6.40
2011,10,31,23,34,6.30
2011,10,31,23,35,6.30
2011,10,31,23,36,6.30
2011,10,31,23,37,6.30
2011,10,31,23,38,6.20
2011,10,31,23,39,6.20
2011,10,31,23,40,6.20
2011,10,31,23,41,6.10
2011,10,31,23,42,6.10
2011,10,31,23,43,6.00
2011,10,31,23,44,6.00
2011,10,31,23,45,5.90
2011,10,31,23,46,5.90
2011,10,31,23,47,5.80
2011,10,31,23,48,5.70
2011,10,31,23,49,5.60
2011,10,31,23,50,5.60
2011,10,31,23,51,5.60
2011,10,31,23,52,5.60
2011,10,31,23,53,5.50
2011,10,31,23,54,5.40
2011,10,31,23,55,5.40
2011,10,31,23,56,5.40
2011,10,31,23,57,5.40
2011,10,31,23,58,5.40
2011,10,31,23,59,5.50
